| time (UTC) | temp F | wind direction | speed MPH | gust MPH | rain 1hr in | rain 24hr in | rain mn in | humidity % | barometer mb |
| 20260902232336 | 78 | 109 | 2.0 | 7.0 | 0.00 | 0.09 | 0.09 | 78 | 1016.4 |
| 20260902231333 | 78 | 194 | 3.0 | 6.0 | 0.00 | 0.09 | 0.09 | 76 | 1016.5 |
| 20260902230401 | 79 | 169 | 1.0 | 3.0 | 0.00 | 0.09 | 0.09 | 75 | 1016.2 |
| 20260902225316 | 80 | 162 | 4.0 | 8.0 | 0.00 | 0.09 | 0.09 | 73 | 1016.1 |
| 20260902224328 | 80 | 198 | 4.0 | 8.0 | 0.00 | 0.09 | 0.09 | 73 | 1015.8 |
| 20260902223325 | 80 | 212 | 3.0 | 12.0 | 0.00 | 0.09 | 0.09 | 73 | 1015.7 |
| 20260902222334 | 80 | 137 | 6.0 | 16.0 | 0.00 | 0.09 | 0.09 | 74 | 1015.7 |
| 20260902221315 | 81 | 119 | 6.0 | 15.0 | 0.00 | 0.09 | 0.09 | 74 | 1015.6 |
| 20260902220340 | 82 | 151 | 7.0 | 12.0 | 0.00 | 0.09 | 0.09 | 73 | 1015.5 |
| 20260902215333 | 82 | 108 | 6.0 | 13.0 | 0.00 | 0.09 | 0.09 | 73 | 1015.7 |
| 20260902214336 | 83 | 215 | 5.0 | 10.0 | 0.00 | 0.09 | 0.09 | 73 | 1016.0 |
| 20260902213326 | 83 | 146 | 4.0 | 11.0 | 0.00 | 0.09 | 0.09 | 73 | 1016.2 |
| 20260902212354 | 84 | 108 | 6.0 | 10.0 | 0.00 | 0.09 | 0.09 | 72 | 1016.0 |
| 20260902211314 | 84 | 121 | 5.0 | 9.0 | 0.00 | 0.09 | 0.09 | 72 | 1016.0 |
| 20260902210318 | 85 | 132 | 3.0 | 7.0 | 0.00 | 0.09 | 0.09 | 70 | 1016.0 |
| 20260902205317 | 85 | 162 | 3.0 | 6.0 | 0.00 | 0.09 | 0.09 | 70 | 1016.2 |
| 20260902204331 | 84 | 103 | 1.0 | 6.0 | 0.00 | 0.09 | 0.09 | 70 | 1015.9 |
| 20260902203336 | 84 | 159 | 3.0 | 5.0 | 0.00 | 0.09 | 0.09 | 73 | 1016.0 |
| 20260902202314 | 84 | 248 | 3.0 | 5.0 | 0.00 | 0.09 | 0.09 | 73 | 1016.1 |
| 20260902201336 | 83 | 351 | 1.0 | 3.0 | 0.00 | 0.09 | 0.09 | 76 | 1016.2 |
| 20260902200335 | 83 | 276 | 2.0 | 4.0 | 0.00 | 0.09 | 0.09 | 73 | 1016.4 |
| 20260902195334 | 82 | 112 | 2.0 | 5.0 | 0.00 | 0.09 | 0.09 | 75 | 1016.2 |
| 20260902194333 | 81 | 211 | 2.0 | 6.0 | 0.00 | 0.09 | 0.09 | 76 | 1016.2 |
| 20260902193332 | 80 | 201 | 1.0 | 5.0 | 0.00 | 0.09 | 0.09 | 79 | 1016.1 |
| 20260902192316 | 78 | 195 | 1.0 | 5.0 | 0.00 | 0.09 | 0.09 | 82 | 1016.2 |
| 20260902191316 | 78 | 120 | 3.0 | 8.0 | 0.00 | 0.09 | 0.09 | 83 | 1016.3 |
| 20260902190314 | 78 | 97 | 1.0 | 4.0 | 0.00 | 0.09 | 0.09 | 83 | 1016.6 |
| 20260902185347 | 78 | 145 | 2.0 | 6.0 | 0.00 | 0.09 | 0.09 | 83 | 1016.9 |
| 20260902184334 | 79 | 159 | 1.0 | 5.0 | 0.00 | 0.09 | 0.09 | 81 | 1016.9 |
| 20260902183339 | 79 | 169 | 1.0 | 9.0 | 0.00 | 0.09 | 0.09 | 81 | 1016.8 |
| 20260902182340 | 79 | 155 | 4.0 | 8.0 | 0.00 | 0.09 | 0.09 | 80 | 1017.0 |
| 20260902181336 | 80 | 131 | 2.0 | 6.0 | 0.00 | 0.09 | 0.09 | 82 | 1016.8 |
| 20260902180315 | 80 | 175 | 1.0 | 3.0 | 0.00 | 0.09 | 0.09 | 81 | 1017.0 |
| 20260902175349 | 78 | 337 | 0.0 | 4.0 | 0.00 | 0.09 | 0.09 | 84 | 1016.8 |
| 20260902174330 | 77 | 40 | 2.0 | 7.0 | 0.06 | 0.09 | 0.09 | 83 | 1016.7 |
| 20260902173332 | 77 | 109 | 1.0 | 8.0 | 0.09 | 0.09 | 0.09 | 86 | 1017.2 |
| 20260902172313 | 77 | 24 | 3.0 | 8.0 | 0.09 | 0.09 | 0.09 | 90 | 1017.8 |
| 20260902171314 | 75 | 36 | 3.0 | 6.0 | 0.09 | 0.09 | 0.09 | 91 | 1018.3 |
| 20260902170337 | 74 | 41 | 2.0 | 5.0 | 0.09 | 0.09 | 0.09 | 90 | 1018.1 |
| 20260902165351 | 74 | 5 | 3.0 | 9.0 | 0.09 | 0.09 | 0.09 | 83 | 1018.5 |
| 20260902164317 | 78 | 47 | 4.0 | 20.0 | 0.02 | 0.02 | 0.02 | 72 | 1019.3 |
| 20260902163336 | 84 | 321 | 11.0 | 32.0 | 0.00 | 0.00 | 0.00 | 61 | 1019.8 |
| 20260902162314 | 87 | 324 | 6.0 | 10.0 | 0.00 | 0.00 | 0.00 | 67 | 1018.3 |
| 20260902161335 | 88 | 342 | 4.0 | 6.0 | 0.00 | 0.00 | 0.00 | 66 | 1017.7 |
| 20260902160356 | 87 | 208 | 1.0 | 2.0 | 0.00 | 0.00 | 0.00 | 69 | 1017.5 |
| 20260902155326 | 87 | 208 | 1.0 | 3.0 | 0.00 | 0.00 | 0.00 | 69 | 1017.5 |
| 20260902154334 | 87 | 209 | 2.0 | 4.0 | 0.00 | 0.00 | 0.00 | 69 | 1017.4 |
| 20260902153314 | 88 | 215 | 2.0 | 4.0 | 0.00 | 0.00 | 0.00 | 68 | 1017.1 |
| 20260902152315 | 87 | 171 | 4.0 | 7.0 | 0.00 | 0.00 | 0.00 | 68 | 1016.9 |
| 20260902151315 | 87 | 157 | 3.0 | 8.0 | 0.00 | 0.00 | 0.00 | 69 | 1016.9 |
| 20260902150315 | 87 | 166 | 3.0 | 7.0 | 0.00 | 0.00 | 0.00 | 70 | 1017.0 |
| 20260902145314 | 87 | 171 | 2.0 | 4.0 | 0.00 | 0.00 | 0.00 | 67 | 1016.9 |
| 20260902144358 | 86 | 156 | 3.0 | 6.0 | 0.00 | 0.00 | 0.00 | 69 | 1016.9 |
| 20260902143313 | 86 | 185 | 4.0 | 7.0 | 0.00 | 0.00 | 0.00 | 68 | 1016.9 |
| 20260902142336 | 85 | 138 | 1.0 | 7.0 | 0.00 | 0.00 | 0.00 | 70 | 1017.0 |
| 20260902141314 | 85 | 168 | 3.0 | 8.0 | 0.00 | 0.00 | 0.00 | 70 | 1017.0 |
| 20260902140337 | 84 | 139 | 3.0 | 5.0 | 0.00 | 0.00 | 0.00 | 72 | 1016.8 |
| 20260902135313 | 83 | 175 | 3.0 | 5.0 | 0.00 | 0.00 | 0.00 | 71 | 1016.8 |
| 20260902134312 | 83 | 177 | 1.0 | 7.0 | 0.00 | 0.00 | 0.00 | 74 | 1016.7 |
| 20260902133312 | 82 | 209 | 2.0 | 6.0 | 0.00 | 0.00 | 0.00 | 74 | 1017.0 |
| 20260902132338 | 82 | 190 | 3.0 | 6.0 | 0.00 | 0.00 | 0.00 | 76 | 1017.0 |
| 20260902131333 | 81 | 235 | 3.0 | 6.0 | 0.00 | 0.00 | 0.00 | 79 | 1017.0 |
| 20260902130338 | 80 | 263 | 3.0 | 6.0 | 0.00 | 0.00 | 0.00 | 82 | 1017.0 |
| 20260902125319 | 79 | 236 | 2.0 | 4.0 | 0.00 | 0.00 | 0.00 | 86 | 1016.9 |
| 20260902124323 | 77 | 271 | 2.0 | 3.0 | 0.00 | 0.00 | 0.00 | 90 | 1016.8 |
| 20260902123312 | 75 | 163 | 1.0 | 2.0 | 0.00 | 0.00 | 0.00 | 92 | 1016.6 |
| 20260902122316 | 74 | 163 | 0.0 | 2.0 | 0.00 | 0.00 | 0.00 | 93 | 1016.5 |
| 20260902121336 | 73 | 163 | 0.0 | 1.0 | 0.00 | 0.00 | 0.00 | 94 | 1016.6 |
| 20260902120314 | 73 | 163 | 0.0 | 0.0 | 0.00 | 0.00 | 0.00 | 94 | 1016.5 |
| 20260902115314 | 72 | 163 | 0.0 | 0.0 | 0.00 | 0.00 | 0.00 | 94 | 1016.4 |
| 20260902114317 | 72 | 163 | 1.0 | 2.0 | 0.00 | 0.00 | 0.00 | 94 | 1016.4 |
| 20260902113336 | 72 | 163 | 0.0 | 1.0 | 0.00 | 0.00 | 0.00 | 94 | 1016.3 |
| 20260902112315 | 72 | 163 | 0.0 | 0.0 | 0.00 | 0.00 | 0.00 | 94 | 1016.2 |
| 20260902111338 | 71 | 163 | 0.0 | 2.0 | 0.00 | 0.00 | 0.00 | 93 | 1016.4 |
| 20260902110313 | 71 | 163 | 1.0 | 4.0 | 0.00 | 0.00 | 0.00 | 93 | 1016.5 |
| 20260902105318 | 71 | 150 | 2.0 | 4.0 | 0.00 | 0.00 | 0.00 | 93 | 1016.6 |
| 20260902104328 | 72 | 196 | 1.0 | 3.0 | 0.00 | 0.00 | 0.00 | 93 | 1016.8 |
| 20260902103315 | 72 | 188 | 1.0 | 3.0 | 0.00 | 0.00 | 0.00 | 93 | 1016.6 |
| 20260902102314 | 72 | 108 | 1.0 | 2.0 | 0.00 | 0.00 | 0.00 | 93 | 1016.6 |
| 20260902101312 | 72 | 108 | 0.0 | 1.0 | 0.00 | 0.00 | 0.00 | 93 | 1016.6 |
| 20260902100319 | 72 | 108 | 0.0 | 1.0 | 0.00 | 0.00 | 0.00 | 93 | 1016.5 |
| 20260902095330 | 72 | 108 | 0.0 | 1.0 | 0.00 | 0.00 | 0.00 | 93 | 1016.6 |
| 20260902094311 | 72 | 108 | 0.0 | 0.0 | 0.00 | 0.00 | 0.00 | 93 | 1016.5 |
| 20260902093330 | 72 | 108 | 1.0 | 3.0 | 0.00 | 0.00 | 0.00 | 93 | 1016.3 |
| 20260902092342 | 72 | 108 | 0.0 | 0.0 | 0.00 | 0.00 | 0.00 | 93 | 1016.2 |
| 20260902091321 | 72 | 108 | 0.0 | 1.0 | 0.00 | 0.00 | 0.00 | 93 | 1016.3 |
| 20260902090321 | 72 | 108 | 0.0 | 0.0 | 0.00 | 0.00 | 0.00 | 92 | 1016.3 |
| 20260902085318 | 72 | 108 | 0.0 | 0.0 | 0.00 | 0.00 | 0.00 | 92 | 1016.2 |
| 20260902084321 | 72 | 108 | 0.0 | 1.0 | 0.00 | 0.00 | 0.00 | 92 | 1016.1 |
| 20260902083356 | 72 | 108 | 0.0 | 1.0 | 0.00 | 0.00 | 0.00 | 91 | 1016.2 |
| 20260902082320 | 72 | 108 | 0.0 | 1.0 | 0.00 | 0.00 | 0.00 | 91 | 1016.2 |
| 20260902081341 | 72 | 108 | 0.0 | 1.0 | 0.00 | 0.00 | 0.00 | 91 | 1016.2 |
| 20260902080317 | 72 | 108 | 0.0 | 1.0 | 0.00 | 0.00 | 0.00 | 91 | 1016.2 |
| 20260902075317 | 72 | 108 | 0.0 | 2.0 | 0.00 | 0.00 | 0.00 | 90 | 1016.2 |
| 20260902074317 | 73 | 108 | 0.0 | 1.0 | 0.00 | 0.00 | 0.00 | 90 | 1016.0 |
| 20260902073335 | 73 | 108 | 0.0 | 1.0 | 0.00 | 0.00 | 0.00 | 90 | 1016.0 |
| 20260902072315 | 73 | 108 | 1.0 | 2.0 | 0.00 | 0.00 | 0.00 | 89 | 1016.0 |
| 20260902071340 | 73 | 108 | 1.0 | 2.0 | 0.00 | 0.00 | 0.00 | 89 | 1015.8 |
| 20260902070338 | 73 | 108 | 0.0 | 2.0 | 0.00 | 0.00 | 0.00 | 89 | 1015.9 |
| 20260902065337 | 73 | 181 | 1.0 | 2.0 | 0.00 | 0.00 | 0.00 | 89 | 1015.8 |
| 20260902064339 | 73 | 181 | 0.0 | 2.0 | 0.00 | 0.00 | 0.00 | 89 | 1015.8 |
| 20260902063323 | 73 | 181 | 1.0 | 2.0 | 0.00 | 0.00 | 0.00 | 89 | 1015.8 |
| 20260902062318 | 74 | 181 | 0.0 | 2.0 | 0.00 | 0.00 | 0.00 | 88 | 1015.7 |
| 20260902061334 | 74 | 159 | 1.0 | 2.0 | 0.00 | 0.00 | 0.00 | 88 | 1015.6 |
| 20260902060318 | 74 | 159 | 1.0 | 2.0 | 0.00 | 0.00 | 0.00 | 87 | 1015.8 |
| 20260902055317 | 74 | 294 | 0.0 | 3.0 | 0.00 | 0.00 | 0.00 | 87 | 1015.7 |
| 20260902054317 | 74 | 125 | 0.0 | 2.0 | 0.00 | 0.00 | 0.00 | 86 | 1015.7 |
| 20260902053317 | 75 | 125 | 1.0 | 2.0 | 0.00 | 0.00 | 0.00 | 86 | 1015.9 |
| 20260902052318 | 75 | 125 | 2.0 | 3.0 | 0.00 | 0.00 | 0.00 | 85 | 1016.1 |
| 20260902051333 | 75 | 125 | 0.0 | 2.0 | 0.00 | 0.00 | 0.00 | 84 | 1016.1 |
| 20260902050337 | 76 | 125 | 1.0 | 3.0 | 0.00 | 0.00 | 0.00 | 84 | 1016.2 |
| 20260902045337 | 76 | 125 | 1.0 | 2.0 | 0.00 | 0.00 | 0.00 | 83 | 1016.3 |
| 20260902044339 | 76 | 125 | 1.0 | 2.0 | 0.00 | 0.00 | 0.00 | 82 | 1016.1 |
| 20260902043337 | 77 | 125 | 0.0 | 2.0 | 0.00 | 0.00 | 0.00 | 81 | 1015.9 |
| 20260902042333 | 77 | 125 | 0.0 | 3.0 | 0.00 | 0.00 | 0.00 | 81 | 1015.6 |
| 20260902041318 | 77 | 125 | 0.0 | 2.0 | 0.00 | 0.00 | 0.00 | 80 | 1015.7 |
| 20260902040337 | 77 | 125 | 1.0 | 2.0 | 0.00 | 0.00 | 0.00 | 80 | 1015.8 |
| 20260902035335 | 77 | 125 | 2.0 | 3.0 | 0.00 | 0.00 | 0.00 | 79 | 1015.6 |
| 20260902034339 | 77 | 125 | 2.0 | 3.0 | 0.00 | 0.00 | 0.00 | 79 | 1015.5 |
| 20260902033330 | 77 | 125 | 1.0 | 2.0 | 0.00 | 0.00 | 0.00 | 79 | 1015.4 |
| 20260902032328 | 78 | 125 | 1.0 | 2.0 | 0.00 | 0.00 | 0.00 | 79 | 1015.2 |
| 20260902031338 | 78 | 125 | 0.0 | 3.0 | 0.00 | 0.00 | 0.00 | 78 | 1015.0 |
| 20260902030335 | 78 | 125 | 1.0 | 3.0 | 0.00 | 0.00 | 0.00 | 78 | 1015.0 |
| 20260902025320 | 78 | 125 | 1.0 | 4.0 | 0.00 | 0.00 | 0.00 | 78 | 1014.9 |
| 20260902024333 | 78 | 235 | 1.0 | 3.0 | 0.00 | 0.00 | 0.00 | 78 | 1014.7 |
| 20260902023318 | 78 | 98 | 2.0 | 3.0 | 0.00 | 0.00 | 0.00 | 78 | 1014.4 |
| 20260902022320 | 78 | 152 | 1.0 | 5.0 | 0.00 | 0.00 | 0.00 | 78 | 1014.3 |
| 20260902021336 | 78 | 113 | 0.0 | 4.0 | 0.00 | 0.00 | 0.00 | 78 | 1014.4 |
| 20260902020318 | 79 | 128 | 1.0 | 3.0 | 0.00 | 0.00 | 0.00 | 77 | 1014.4 |
| 20260902015318 | 79 | 128 | 2.0 | 3.0 | 0.00 | 0.00 | 0.00 | 76 | 1014.5 |
| 20260902014320 | 80 | 128 | 1.0 | 2.0 | 0.00 | 0.00 | 0.00 | 74 | 1014.4 |
| 20260902013315 | 81 | 128 | 1.0 | 3.0 | 0.00 | 0.00 | 0.00 | 72 | 1014.4 |
| 20260902012315 | 83 | 128 | 2.0 | 3.0 | 0.00 | 0.00 | 0.00 | 70 | 1014.5 |
| 20260902011334 | 83 | 284 | 2.0 | 3.0 | 0.00 | 0.00 | 0.00 | 67 | 1014.6 |
| 20260902010334 | 84 | 272 | 1.0 | 6.0 | 0.00 | 0.00 | 0.00 | 66 | 1014.3 |
| 20260902005318 | 83 | 284 | 4.0 | 11.0 | 0.00 | 0.00 | 0.00 | 66 | 1013.7 |
| 20260902004338 | 84 | 244 | 2.0 | 4.0 | 0.00 | 0.00 | 0.00 | 67 | 1013.4 |
| 20260902003337 | 85 | 293 | 1.0 | 10.0 | 0.00 | 0.00 | 0.00 | 65 | 1013.3 |
| 20260902002340 | 85 | 265 | 4.0 | 10.0 | 0.00 | 0.00 | 0.00 | 65 | 1013.3 |
| 20260902001314 | 85 | 300 | 5.0 | 9.0 | 0.00 | 0.00 | 0.00 | 65 | 1013.1 |
| 20260902000331 | 85 | 257 | 2.0 | 9.0 | 0.00 | 0.00 | 0.00 | 66 | 1013.1 |
| 20260901235315 | 86 | 238 | 2.0 | 4.0 | 0.00 | 0.00 | 0.00 | 65 | 1013.0 |
| 20260901234335 | 86 | 241 | 2.0 | 5.0 | 0.00 | 0.00 | 0.00 | 64 | 1012.8 |
| 20260901233315 | 87 | 229 | 2.0 | 8.0 | 0.00 | 0.00 | 0.00 | 63 | 1012.7 |